Content
SEND FEEDBACK

Daily
Averages
Monthly
Summary
United States of America

COEUR D'ALENE, IDAHO


Home > North America > United States > Idaho
Elevation: 2318 feet     Latitude: 47 46N     Longitude: 116 49W

WEATHER
 
SELECT A DAY
Number of Records: 457,334;   Date Range: 1/1/95 - 12/26/14
 
SHARE

PRINT THIS DATA

[ ← Previous Day ]
WEATHER ALMANAC - JANUARY 31, 2013
[ Next Day → ]
[ °C ]   °F
Weather ElementAverageHighLow
Temperature36.5 °F39.2 °F (1:35 pm)33.8 °F (6:55 am)
Dewpoint34.7 °F37.4 °F (1:35 pm)32 °F (7:15 am)
Humidity93.2 %100 % (1:35 am)87 % (4:15 pm)
Barometer30.22 in30.25 in (8:15 am)30.15 in (10:55 pm)
Wind Speed3.5 mph9.2 mph (8:35 pm)
Weather ElementAverage
Visibility7.6 mi
Wind DirectionSE (137.2 °)

Weather ElementTotal
Precipitation---
Heating Degree Days28.5 (Base 65)
Averaged from 69 records on January 31, 2013
WEATHER CONDITIONS BREAKOUT
WIND DIRECTION BREAKOUT
WEATHER BY HOUR - JANUARY 31, 2013
[ °C ]   °F
Local TimeTemperatureDewpointHumidityBarometerVisibilityWind DirectionWind SpeedGust SpeedPrecipitationEventsConditions
12:35 AM35.6 °F33.8 °F93 %30.22 in10.0 miSW (230°)4.6 mphOvercast
12:55 AM35.6 °F33.8 °F93 %30.23 in10.0 miSW (220°)5.8 mphOvercast
1:15 AM35.6 °F33.8 °F93 %30.23 in10.0 miSSW (200°)4.6 mphOvercast
1:35 AM35.6 °F35.6 °F100 %30.23 in10.0 miCalmOvercast
1:55 AM35.6 °F33.8 °F93 %30.23 in7.0 miCalmOvercast
2:15 AM35.6 °F33.8 °F93 %30.23 in10.0 miCalmOvercast
2:35 AM35.6 °F35.6 °F100 %30.23 in10.0 miSSW (210°)4.6 mphOvercast
2:55 AM35.6 °F33.8 °F93 %30.24 in10.0 miWSW (240°)5.8 mphOvercast
3:15 AM35.6 °F33.8 °F93 %30.24 in10.0 miWSW (240°)4.6 mphOvercast
3:35 AM35.6 °F33.8 °F93 %30.24 in10.0 miSSW (210°)4.6 mphOvercast
3:55 AM35.6 °F33.8 °F93 %30.23 in10.0 miCalmOvercast
4:15 AM35.6 °F33.8 °F93 %30.23 in10.0 miCalmOvercast
4:35 AM35.6 °F33.8 °F93 %30.23 in7.0 miCalmOvercast
4:55 AM35.6 °F33.8 °F93 %30.24 in8.0 miWNW (290°)8.1 mphOvercast
5:15 AM35.6 °F33.8 °F93 %30.24 in8.0 miWest (280°)6.9 mphOvercast
5:35 AM35.6 °F33.8 °F93 %30.24 in10.0 miSW (230°)6.9 mphOvercast
5:55 AM35.6 °F33.8 °F93 %30.24 in8.0 miSW (220°)3.5 mphOvercast
6:15 AM35.6 °F33.8 °F93 %30.24 in7.0 miSSW (210°)3.5 mphOvercast
6:35 AM35.6 °F33.8 °F93 %30.24 in6.0 miCalmOvercast
6:55 AM33.8 °F33.8 °F100 %30.23 in4.0 miSouth (180°)4.6 mphOvercast
7:15 AM33.8 °F32.0 °F93 %30.23 in1.5 miCalmOvercast
7:35 AM33.8 °F33.8 °F100 %30.24 in1.5 miWest (260°)4.6 mphOvercast
7:55 AM35.6 °F33.8 °F93 %30.24 in2.5 miSW (230°)3.5 mphOvercast
8:15 AM35.6 °F33.8 °F93 %30.25 in4.0 miCalmOvercast
8:35 AM35.6 °F33.8 °F93 %30.25 in2.0 miCalmOvercast
8:55 AM35.6 °F33.8 °F93 %30.25 in1.8 miWSW (250°)3.5 mphOvercast
9:15 AM33.8 °F33.8 °F100 %30.25 in1.5 miCalmOvercast
9:35 AM35.6 °F33.8 °F93 %30.24 in1.8 miCalmOvercast
9:55 AM35.6 °F33.8 °F93 %30.25 in2.0 miCalmOvercast
10:15 AM35.6 °F33.8 °F93 %30.25 in2.5 miWSW (250°)3.5 mphOvercast
10:35 AM35.6 °F33.8 °F93 %30.25 in2.0 miCalmOvercast
10:55 AM35.6 °F33.8 °F93 %30.25 in2.5 miWest (260°)6.9 mphOvercast
11:15 AM35.6 °F33.8 °F93 %30.25 in4.0 miWest (270°)6.9 mphOvercast
11:35 AM35.6 °F33.8 °F93 %30.24 in5.0 miCalmOvercast
11:55 AM37.4 °F35.6 °F93 %30.24 in5.0 miWSW (250°)3.5 mphOvercast
12:15 PM37.4 °F35.6 °F93 %30.23 in7.0 miSW (220°)5.8 mphOvercast
12:35 PM37.4 °F35.6 °F93 %30.23 in9.0 miSSW (200°)4.6 mphOvercast
12:55 PM37.4 °F35.6 °F93 %30.22 in10.0 miSouth (180°)5.8 mphOvercast
1:15 PM37.4 °F35.6 °F93 %30.23 in10.0 miSW (220°)3.5 mphOvercast
1:35 PM39.2 °F37.4 °F93 %30.22 in10.0 miCalmOvercast
1:55 PM37.4 °F35.6 °F93 %30.21 in10.0 miSSW (210°)4.6 mphOvercast
2:15 PM37.4 °F35.6 °F93 %30.21 in10.0 miSW (220°)8.1 mphOvercast
2:35 PM37.4 °F35.6 °F93 %30.21 in10.0 miSW (220°)6.9 mphOvercast
2:55 PM37.4 °F35.6 °F93 %30.22 in10.0 miCalmOvercast
3:15 PM37.4 °F35.6 °F93 %30.21 in10.0 miCalmOvercast
3:35 PM37.4 °F35.6 °F93 %30.21 in10.0 miCalmOvercast
3:55 PM37.4 °F35.6 °F93 %30.20 in10.0 miCalmOvercast
4:15 PM37.4 °F33.8 °F87 %30.20 in10.0 miCalmOvercast
4:35 PM37.4 °F33.8 °F87 %30.20 in10.0 miCalmOvercast
4:55 PM37.4 °F33.8 °F87 %30.19 in10.0 miSSW (210°)6.9 mphOvercast
5:15 PM37.4 °F33.8 °F87 %30.20 in10.0 miSW (230°)8.1 mphOvercast
5:35 PM37.4 °F33.8 °F87 %30.19 in9.0 miSW (230°)6.9 mphOvercast
5:55 PM35.6 °F35.6 °F100 %30.20 in10.0 miWSW (240°)3.5 mphOvercast
6:15 PM37.4 °F35.6 °F93 %30.19 in5.0 miSSW (200°)6.9 mphOvercast
6:35 PM37.4 °F35.6 °F93 %30.19 in9.0 miCalmOvercast
6:55 PM37.4 °F35.6 °F93 %30.19 in7.0 miWSW (250°)4.6 mphOvercast
7:15 PM37.4 °F35.6 °F93 %30.18 in8.0 miSW (230°)5.8 mphOvercast
7:35 PM37.4 °F35.6 °F93 %30.19 in5.0 miSSW (210°)3.5 mphOvercast
7:55 PM37.4 °F37.4 °F100 %30.18 in6.0 miCalmMostly Cloudy
8:15 PM37.4 °F35.6 °F93 %30.17 in2.0 miSouth (180°)5.8 mphOvercast
8:35 PM37.4 °F35.6 °F93 %30.16 in10.0 miSouth (180°)9.2 mphOvercast
8:55 PM37.4 °F35.6 °F93 %30.16 in10.0 miSouth (180°)8.1 mphOvercast
9:15 PM37.4 °F37.4 °F100 %30.16 in10.0 miSouth (180°)5.8 mphOvercast
9:35 PM37.4 °F35.6 °F93 %30.16 in10.0 miSSE (160°)5.8 mphOvercast
9:55 PM37.4 °F35.6 °F93 %30.16 in10.0 miSouth (180°)6.9 mphOvercast
10:15 PM37.4 °F35.6 °F93 %30.16 in10.0 miCalmOvercast
10:55 PM37.4 °F35.6 °F93 %30.15 in10.0 miSouth (180°)5.8 mphOvercast
11:15 PM39.2 °F35.6 °F87 %30.16 in10.0 miCalmOvercast
11:35 PM39.2 °F35.6 °F87 %30.17 in10.0 miSW (230°)9.2 mphOvercast
Hourly data recorded from KCOE, located miles away from Coeur d'Alene, Idaho







STORIES FROM OUR PARTNERS